Flag for Austria Weather past 2 weeks in Fürstenfeld, Styria, Austria

Now
66 °F

Mild.


Feels Like: 66 °F
Forecast: 56 / 61 °F
Wind: 2 mph from Northwest

Location: Murska Sobota

Current Time: Jul 29, 2015 at 6:28:08 PM

Latest Report: Jul 29, 2015 at 5:00 PM


Visibility: N/A

Pressure: 29.86 "Hg

Humidity: 76%

Dew point: 59 °F

Location of FürstenfeldLocation

Historic Weather in Fürstenfeld — Graph

°F

Fürstenfeld temperature yesterday

Maximum temperature yesterday: 73 °F (at 6:00 PM)
Minimum temperature yesterday: 61 °F (at 3:00 AM)
Average temperature yesterday: 66 °F

Past Weeks' High & Low Weather Summary

 TemperatureHumidityPressure
High95 °F (Jul 22, 4:00 PM)97% (Jul 17, 5:00 AM)30.11 "Hg (Jul 17, 5:00 AM)
Low59 °F (Jul 27, 12:00 AM)36% (Jul 22, 6:00 PM)29.72 "Hg (Jul 25, 3:00 PM)
Average75 °F75%29.92 "Hg
* Reported Jul 14 5:00 PM — Jul 29 5:00 PM, Fürstenfeld, Weather by CustomWeather, © 2015

Note: Actual official high and low records may vary slightly from our data, if they occured in-between our weather recording intervals... More about our weather records

Advertising

Fürstenfeld weather history for previous 24 hours

 ConditionsComfort  
Time TempWeatherWind HumidityBarometerVisibility
5:00 PM
Wed, Jul 29
66 °FMild.2 mph76%29.86 "HgN/A
4:00 PM67 °FMild.1 mph72%29.88 "HgN/A
3:00 PM66 °FPartly sunny.1 mph75%29.90 "Hg12 mi
2:00 PM62 °FOvercast.1 mph83%29.92 "Hg12 mi
1:00 PM61 °FCool.1 mph88%29.93 "HgN/A
12:00 PM60 °FCool.3 mph89%29.93 "HgN/A
11:00 AM60 °FCool.3 mph90%29.93 "HgN/A
10:00 AM60 °FCool.5 mph91%29.93 "HgN/A
9:00 AM61 °FCool.3 mph84%29.92 "HgN/A
8:00 AM63 °FLight rain. Overcast.5 mph87%29.88 "Hg2 mi
6:00 AM65 °FMild.1 mph88%29.83 "HgN/A
5:00 AM64 °FMild.1 mph93%29.82 "HgN/A
4:00 AM64 °FMild.2 mph94%29.82 "HgN/A
3:00 AM64 °FMild.1 mph95%29.81 "HgN/A
2:00 AM63 °FMild.No wind95%29.82 "HgN/A
1:00 AM63 °FMild.1 mph95%29.83 "HgN/A
12:00 AM62 °FMild.1 mph95%29.83 "HgN/A
11:00 PM
Tue, Jul 28
65 °FMild.No wind92%29.82 "HgN/A
10:00 PM66 °FMild.1 mph88%29.82 "HgN/A
9:00 PM67 °FMild.1 mph86%29.80 "HgN/A
8:00 PM70 °FPartly sunny.1 mph79%29.80 "Hg12 mi
7:00 PM72 °FMild.1 mph66%29.80 "HgN/A
6:00 PM73 °FMild.1 mph60%29.80 "HgN/A
Weather by CustomWeather, © 2015

See weather overviewHow to use our weather pages